User: anonymous   Login
Location: Gleizolles
(44.4833°N, 6.7667°E)
Time: 16:57:08
(UTC+00:00)
Language:

RS-15 - Orbit

View from above orbital plane
View from above orbital plane
View from above satellite
View from above satellite

Ground track
Ground track

The orbit data is extracted from the following two-line orbital elements,

1 23439U 94085A   24105.87801315 -.00000052  00000-0 -27810-3 0  9992
2 23439  64.8141 146.1536 0151885 155.7805 205.0355 11.27576336206450
Epoch (UTC): 14 April 2024 21:04:20
Eccentricity: 0.0151885
inclination: 64.8141°
perigee height: 1895 km
apogee height: 2150 km
right ascension of ascending node: 146.1536°
argument of perigee: 155.7805°
revolutions per day: 11.27576336
mean anomaly at epoch: 205.0355°
orbit number at epoch: 20645

The dashed part of the orbit path shows where the satellite is in the earth's shadow,  

DLR